Weather History for KSQL - January, 2012

Change the Weather History Date:

Friday, January 6, 2012

  Actual Average Record
Temperature  
Mean Temperature 48 °F -  
Max Temperature 57 °F 55 °F 68 °F (1978)
Min Temperature 39 °F 37 °F 24 °F (1950)
Degree Days  
Heating Degree Days 17    
Moisture  
Dew Point 40 °F    
Average Humidity 85    
Maximum Humidity 93    
Minimum Humidity 63    
Precipitation  
Precipitation 0.00 in - - ()
Sea Level Pressure  
Sea Level Pressure 30.16 in    
Wind  
Wind Speed 2 mph (ESE)    
Max Wind Speed 7 mph    
Max Gust Speed -    
Visibility 10 miles    
Events      
Averages and records for this station are not official NWS values.
T = Trace of Precipitation, MM = Missing Value Source: NWS Daily Summary

Daily Weather History Graph

Daily Weather History Graph

Search for Another Location

Airport or City:

Trip Planner

Search our weather history database for the weather conditions in past years. The results will help you decide how hot, cold, wet, or windy it might be!

Date:

Astronomy

Jan. 06, 2012 Rise Set
Actual Time 7:24 AM PST 5:05 PM PST
Civil Twilight 6:55 AM PST 5:34 PM PST
Nautical Twilight 6:22 AM PST 6:07 PM PST
Astronomical Twilight 5:50 AM PST 6:38 PM PST
Moon 3:01 PM PST (1/6) 5:08 AM PST (1/6)
Length of Visible Light 10h 39m
Length of Day
9h 41m
Waxing Gibbous, 94% of the Moon is Illuminated
Jan 6
Waxing Gibbous
Jan 8
Full
Jan 16
Last Quarter
Jan 22
New
Jan 30
First Quarter

Hourly Weather History & Observations

Time (PST) Temp. Windchill Dew Point Humidity Pressure Visibility Wind Dir Wind Speed Gust Speed Precip Events Conditions
12:10 AM 46.4 °F 44.3 °F 39.2 °F 76% 30.18 in 10.0 mi SW 4.6 mph - N/A   Scattered Clouds
12:30 AM 44.6 °F - 39.2 °F 81% 30.18 in 10.0 mi Calm Calm - N/A   Partly Cloudy
12:50 AM 44.6 °F - 39.2 °F 81% 30.17 in 10.0 mi Calm Calm - N/A   Clear
1:10 AM 44.6 °F - 39.2 °F 81% 30.17 in 10.0 mi Calm Calm - N/A   Clear
1:30 AM 42.8 °F - 39.2 °F 87% 30.17 in 9.0 mi Calm Calm - N/A   Clear
1:50 AM 44.6 °F 42.2 °F 41.0 °F 87% 30.17 in 10.0 mi SSE 4.6 mph - N/A   Clear
2:10 AM 41.0 °F - 37.4 °F 87% 30.18 in 10.0 mi Calm Calm - N/A   Clear
2:30 AM 41.0 °F - 37.4 °F 87% 30.17 in 10.0 mi Calm Calm - N/A   Clear
2:50 AM 41.0 °F - 37.4 °F 87% 30.17 in 10.0 mi Calm Calm - N/A   Clear
3:10 AM 39.2 °F - 37.4 °F 93% 30.17 in 10.0 mi Calm Calm - N/A   Clear
3:30 AM 39.2 °F - 37.4 °F 93% 30.17 in 10.0 mi Calm Calm - N/A   Clear
3:50 AM 39.2 °F - 37.4 °F 93% 30.17 in 10.0 mi Calm Calm - N/A   Clear
4:10 AM 39.2 °F 37.0 °F 35.6 °F 87% 30.16 in 10.0 mi South 3.5 mph - N/A   Clear
4:30 AM 39.2 °F - 37.4 °F 93% 30.16 in 9.0 mi Calm Calm - N/A   Clear
4:50 AM 39.2 °F - 37.4 °F 93% 30.16 in 10.0 mi Calm Calm - N/A   Clear
5:10 AM 39.2 °F - 37.4 °F 93% 30.16 in 10.0 mi Calm Calm - N/A   Partly Cloudy
5:30 AM 41.0 °F - 39.2 °F 93% 30.16 in 10.0 mi Calm Calm - N/A   Partly Cloudy
5:50 AM 41.0 °F - 39.2 °F 93% 30.16 in 10.0 mi Calm Calm - N/A   Scattered Clouds
6:10 AM 41.0 °F - 39.2 °F 93% 30.16 in 10.0 mi Calm Calm - N/A   Scattered Clouds
6:30 AM 41.0 °F - 39.2 °F 93% 30.16 in 9.0 mi Calm Calm - N/A   Partly Cloudy
6:47 AM 41.0 °F - 37.4 °F 87% 30.17 in 10.0 mi Calm Calm - N/A   Scattered Clouds
7:49 AM 39.2 °F 35.0 °F 37.4 °F 93% 30.17 in 8.0 mi SE 5.8 mph - N/A   Partly Cloudy
8:50 AM 44.6 °F 43.1 °F 41.0 °F 87% 30.20 in 8.0 mi ESE 3.5 mph - N/A   Partly Cloudy
9:50 AM 48.2 °F - 44.6 °F 87% 30.21 in 7.0 mi SE 6.9 mph - N/A   Partly Cloudy
11:47 AM 51.8 °F - 44.6 °F 76% 30.18 in 9.0 mi NNE 4.6 mph - N/A   Scattered Clouds
12:47 PM 51.8 °F - 44.6 °F 76% 30.15 in 7.0 mi NE 6.9 mph - N/A   Scattered Clouds
2:56 PM 57.2 °F - 44.6 °F 63% 30.13 in 9.0 mi NNW 5.8 mph - N/A   Mostly Cloudy
3:50 PM 57.2 °F - 44.6 °F 63% 30.12 in 9.0 mi North 3.5 mph - N/A   Scattered Clouds
4:47 PM 55.4 °F - 44.6 °F 67% 30.12 in 10.0 mi North 5.8 mph - N/A   Scattered Clouds
7:47 PM 50.0 °F - 44.6 °F 82% 30.14 in 10.0 mi Calm Calm - N/A   Clear
8:47 PM 46.4 °F 45.2 °F 42.8 °F 87% 30.16 in 8.0 mi SSE 3.5 mph - N/A   Clear
9:10 PM 46.4 °F - 42.8 °F 87% 30.16 in 9.0 mi Calm Calm - N/A   Clear
9:30 PM 46.4 °F - 41.0 °F 81% 30.16 in 10.0 mi Calm Calm - N/A   Clear
9:50 PM 46.4 °F - 41.0 °F 81% 30.16 in 10.0 mi Calm Calm - N/A   Clear
10:10 PM 46.4 °F - 41.0 °F 81% 30.16 in 10.0 mi Calm Calm - N/A   Clear
10:30 PM 46.4 °F - 41.0 °F 81% 30.16 in 10.0 mi Calm Calm - N/A   Clear
10:50 PM 44.6 °F - 41.0 °F 87% 30.17 in 10.0 mi Calm Calm - N/A   Clear
11:10 PM 44.6 °F - 41.0 °F 87% 30.17 in 10.0 mi Calm Calm - N/A   Clear
11:30 PM 44.6 °F - 41.0 °F 87% 30.16 in 10.0 mi Calm Calm - N/A   Clear
11:50 PM 44.6 °F - 41.0 °F 87% 30.16 in 10.0 mi Calm Calm - N/A   Clear